Wind_Speed
92 88 80 82 86 82 78 76 79 79 79 75 73 70 71 71 64 65 66 65 64 65 66 61 62 63 64 66 66 64 62 63 63 63 63 64 65 66 68 68 62 59 62 63
98 89 90 91 87 84 81 76 73 82 83 79 76 73 73 74 72 69 68 66 67 70 71 69 70 70 70 71 71 70 69 69 68 68 69 69 69 71 71 69 68 67 67 68
104 97 97 93 88 86 85 83 75 84 88 82 74 65 71 74 75 73 71 70 69 72 74 71 75 78 77 75 74 73 74 74 74 74 75 73 71 69 69 70 71 71 71 72
106 102 99 97 93 89 87 88 86 81 87 80 73 63 66 71 75 77 76 78 77 78 78 74 76 76 77 78 78 78 79 75 70 69 66 68 71 71 71 72 72 74 76 78
106 104 100 97 97 99 93 93 92 87 85 82 79 74 58 67 68 74 74 71 70 69 70 71 71 70 69 68 67 69 69 72 75 75 74 73 74 73 74 76 77 80 82 84
111 107 101 98 100 100 102 100 98 94 91 87 78 76 63 62 71 77 76 74 73 74 74 74 73 73 71 69 69 70 69 69 71 74 75 78 80 81 82 83 86 87 87 87
111 110 108 105 105 101 99 100 106 106 99 89 87 86 64 68 72 76 79 80 79 80 81 81 81 79 77 75 74 74 74 74 75 76 78 80 84 85 86 87 88 89 90 92
110 109 109 106 108 109 106 106 109 106 105 100 96 87 75 78 78 79 82 85 86 85 83 83 84 83 83 84 85 84 83 83 83 83 87 88 89 89 90 92 93 95 96 97
113 110 110 109 110 111 111 110 112 114 110 109 104 91 88 85 86 90 85 85 88 89 89 88 88 91 94 95 95 95 94 92 92 93 94 95 96 97 98 99 99 100 100 102
113 108 111 113 113 114 113 113 115 116 117 112 104 100 91 90 91 94 96 96 94 91 93 96 97 95 94 93 95 95 96 96 95 97 98 103 103 103 103 103 102 104 108 108
115 112 110 112 111 113 114 115 117 119 117 116 108 100 94 91 95 96 99 99 101 100 99 101 102 105 103 100 99 100 101 103 106 105 105 105 106 107 107 107 111 111 111 111
121 120 115 111 113 115 118 117 121 120 116 118 118 104 97 93 96 101 103 105 104 106 107 107 106 105 105 104 105 105 106 109 110 110 110 110 111 112 114 116 116 116 114 115
124 126 122 118 116 116 115 115 118 120 125 123 124 101 101 104 104 106 107 108 108 109 111 113 112 111 110 111 110 111 113 115 117 116 116 117 118 118 119 120 119 120 122 121
126 130 127 122 122 124 123 125 126 129 130 121 124 109 104 108 111 112 114 114 113 117 118 118 117 117 117 116 116 115 115 117 119 120 120 120 120 122 124 125 125 125 126 126
126 131 133 132 131 129 127 128 131 132 129 132 124 123 109 112 114 119 120 120 122 125 124 123 125 126 124 122 123 125 125 125 126 125 126 128 129 131 132 131 131 129 130 132
125 125 127 131 134 135 135 134 131 130 130 135 129 130 117 119 123 122 123 127 131 132 130 130 128 127 127 127 127 128 130 130 129 128 129 130 131 132 132 135 134 135 136 135
124 128 128 127 125 132 140 138 136 135 134 132 137 131 127 125 123 124 129 135 134 133 136 135 133 131 129 129 132 132 134 135 133 133 135 136 136 137 137 138 138 137 139 141
129 130 132 128 126 133 129 129 133 139 137 136 138 137 131 130 131 132 137 137 136 140 142 142 139 139 139 138 137 139 140 140 136 134 134 135 137 138 138 139 141 143 143 142
130 129 132 136 137 139 134 127 127 133 138 141 143 141 140 139 140 139 131 135 142 143 143 143 142 141 140 140 141 143 144 144 142 141 140 140 141 141 140 140 142 142 143 144
128 130 133 134 138 142 137 134 138 142 147 131 136 140 140 141 149 143 135 141 141 143 147 146 147 149 148 147 147 148 149 149 148 148 146 144 145 146 145 144 145 144 145 149
134 138 138 136 137 136 131 133 136 147 143 142 144 148 148 149 147 145 143 141 143 145 147 149 146 145 147 149 150 149 147 146 147 149 148 147 146 143 142 143 147 150 150 154
132 140 140 138 139 136 131 131 133 137 140 139 139 144 152 154 154 154 152 150 150 150 149 149 149 148 146 147 147 148 148 147 150 148 145 145 147 149 148 150 153 155 158 158
109 116 123 130 133 136 135 138 138 142 145 147 147 147 147 148 148 149 149 149 149 152 152 155 157 157 156 157 157 159 156 157 156 155 156 156 157 158 157 157 155 154 156 153
97 99 100 103 98 109 110 115 122 129 134 137 141 144 145 149 152 155 156 157 156 154 153 152 153 154 154 157 157 158 157 158 157 155 154 153 156 155 156 156 154 152 151 140
86 90 98 93 94 95 96 102 107 111 115 118 122 126 127 126 126 129 130 134 136 137 141 144 146 150 153 154 157 159 158 157 157 156 154 152 147 142 136 134 130 126 123 121
70 75 74 71 78 75 76 83 89 92 96 101 104 109 112 112 115 118 120 121 123 125 127 130 132 133 132 133 133 131 130 129 129 128 126 126 127 128 128 126 124 122 116 113
Wind_Direction
232 230 228 233 234 233 237 246 245 244 244 241 241 243 244 247 247 248 251 254 257 259 260 260 260 260 261 263 265 266 267 268 271 273 275 277 278 280 282 282 282 283 284 285
233 232 236 237 237 238 239 238 245 247 246 244 244 242 244 248 248 249 252 257 260 261 263 261 262 264 264 264 265 267 268 270 271 273 274 276 277 277 280 283 283 284 284 284
232 232 232 235 237 239 241 243 241 246 247 248 250 249 248 248 252 256 259 260 260 262 263 263 264 265 266 268 269 270 270 271 273 275 276 279 280 282 280 281 281 282 283 285
232 235 232 231 234 239 239 241 244 242 247 250 250 246 254 255 255 258 262 264 265 265 267 269 267 266 268 269 270 271 273 277 279 279 279 275 276 277 278 279 279 281 283 285
230 233 233 236 237 237 238 240 242 244 243 244 251 250 247 256 258 260 259 260 261 263 267 268 268 267 267 270 270 269 272 274 274 274 276 277 277 277 277 278 278 280 283 285
231 233 234 236 239 241 239 240 241 243 245 243 246 250 241 250 255 257 257 258 260 261 262 266 267 267 268 268 268 269 270 273 275 276 276 276 276 277 278 279 281 283 285 287
234 233 234 236 240 241 243 243 243 242 244 243 242 245 240 247 252 255 259 258 260 263 263 264 266 267 268 268 267 268 269 272 276 277 277 277 277 280 281 282 282 283 285 286
234 236 237 238 239 240 241 241 242 246 244 244 244 244 246 245 247 252 255 258 260 260 263 264 265 265 266 266 267 268 269 271 273 275 276 278 280 282 282 282 282 283 285 286
236 236 238 238 241 242 244 245 245 247 247 247 247 246 245 247 249 251 252 256 259 261 263 264 265 267 268 270 271 270 271 273 274 276 278 279 280 280 282 283 285 286 287 289
236 237 238 239 240 243 245 247 248 248 248 247 246 247 248 248 250 252 255 256 257 259 261 263 265 267 268 269 271 273 274 275 277 277 277 279 280 282 284 285 286 287 289 290
235 237 239 240 241 244 245 246 247 248 249 249 246 247 247 251 253 254 255 258 261 262 261 261 263 265 266 267 270 272 273 275 275 277 278 280 282 283 283 284 286 288 289 290
236 237 237 240 242 244 246 248 249 251 254 251 249 245 249 250 252 254 255 256 258 261 262 262 263 265 266 267 269 271 274 275 277 278 278 279 280 281 282 285 286 287 290 291
237 238 239 239 243 246 248 250 252 253 253 253 252 248 255 253 254 256 257 258 259 261 262 262 263 265 267 268 271 273 274 275 275 277 278 279 280 281 284 286 287 287 288 290
239 240 241 241 243 244 247 249 251 252 253 256 256 255 255 257 258 258 258 259 260 260 260 261 262 264 266 268 271 273 275 276 277 277 279 280 281 281 283 284 286 287 289 290
239 241 242 243 244 245 246 248 250 252 255 255 254 255 254 257 258 259 260 261 260 260 262 264 263 264 266 269 271 271 273 275 277 279 279 279 281 282 284 285 286 287 287 288
238 240 243 244 247 248 248 249 250 253 254 256 256 255 256 256 257 259 260 261 261 262 264 264 265 267 268 269 271 273 274 275 275 277 278 279 281 282 283 284 285 287 287 288
239 240 242 243 244 248 249 250 251 253 255 257 257 257 254 256 257 259 260 261 263 264 264 265 266 269 271 272 273 274 275 276 277 278 279 280 281 282 282 283 284 286 287 287
240 240 242 244 244 247 249 250 253 255 256 258 258 258 259 260 257 257 258 260 263 264 265 267 269 270 270 272 274 275 276 277 278 278 279 279 279 280 281 282 283 284 286 287
244 244 245 245 246 247 247 250 253 254 255 257 260 262 261 260 260 259 261 262 262 263 264 266 267 268 269 270 272 273 274 275 276 276 277 278 278 280 282 282 283 284 286 287
247 248 247 246 247 248 249 250 252 254 254 255 259 259 260 261 262 262 261 263 265 266 266 266 267 269 270 270 271 271 272 273 275 276 277 278 279 281 282 282 282 284 285 287
245 245 247 247 250 253 254 255 255 257 259 257 257 260 261 261 262 262 262 262 264 265 266 267 268 269 270 271 271 272 273 274 274 275 277 278 279 280 281 282 283 284 285 286
246 247 249 251 252 254 254 255 257 258 260 261 261 261 262 262 263 264 264 264 265 265 265 266 268 269 269 270 270 270 271 271 272 274 275 277 279 280 282 282 283 284 283 284
248 250 251 253 255 258 258 257 257 258 260 261 263 263 263 265 267 267 267 266 266 267 267 268 268 268 269 270 269 269 271 272 273 275 276 276 277 279 281 282 282 283 284 286
254 256 257 259 259 258 260 261 261 263 264 266 267 267 266 266 268 268 267 267 267 267 266 265 264 266 268 269 270 271 271 272 274 276 276 276 276 278 280 282 283 283 283 286
261 263 263 263 264 263 266 265 265 265 265 265 266 267 267 266 265 266 266 266 266 267 266 265 264 264 266 266 267 269 270 271 272 275 277 277 277 278 279 279 280 282 281 282
258 262 267 270 270 270 268 268 266 265 264 265 266 267 267 267 266 266 267 267 267 267 266 266 266 266 266 267 268 270 271 271 272 273 274 275 275 276 277 278 280 281 282 282
Height
10660 10672 10692 10693 10695 10697 10708 10720 10728 10733 10734 10743 10752 10760 10761 10760 10772 10776 10775 10778 10781 10782 10783 10793 10791 10789 10789 10787 10787 10790 10793 10791 10791 10791 10790 10788 10785 10781 10778 10778 10778 10778 10775 10773
10645 10668 10670 10671 10681 10691 10698 10707 10717 10718 10720 10726 10736 10747 10750 10751 10758 10762 10765 10769 10770 10769 10770 10774 10774 10774 10775 10773 10774 10776 10777 10777 10778 10777 10776 10774 10772 10768 10765 10762 10761 10760 10758 10757
10633 10647 10650 10659 10670 10680 10689 10696 10698 10700 10699 10710 10723 10738 10742 10744 10746 10752 10754 10756 10757 10753 10750 10758 10760 10757 10757 10760 10761 10761 10760 10762 10762 10761 10759 10759 10756 10755 10751 10748 10745 10743 10742 10741
10622 10634 10642 10649 10659 10664 10673 10676 10678 10681 10687 10700 10704 10726 10732 10735 10738 10738 10741 10740 10738 10737 10737 10742 10741 10741 10742 10743 10744 10745 10745 10746 10745 10743 10743 10742 10740 10738 10735 10734 10731 10727 10725 10722
10618 10615 10625 10635 10645 10646 10659 10656 10659 10665 10671 10677 10693 10703 10729 10722 10727 10721 10718 10719 10721 10722 10723 10723 10723 10724 10727 10729 10729 10729 10730 10730 10728 10727 10726 10725 10723 10722 10720 10717 10715 10713 10710 10707
10597 10603 10616 10627 10623 10629 10635 10640 10644 10647 10648 10666 10679 10681 10721 10714 10706 10700 10701 10703 10703 10704 10705 10706 10707 10708 10710 10712 10712 10711 10712 10712 10711 10711 10710 10708 10707 10706 10704 10702 10698 10696 10693 10690
10576 10588 10592 10602 10608 10614 10622 10626 10623 10621 10632 10659 10658 10657 10706 10697 10693 10688 10685 10687 10687 10687 10689 10690 10690 10692 10693 10695 10695 10694 10693 10694 10694 10693 10691 10689 10689 10688 10686 10684 10681 10679 10676 10672
10564 10576 10581 10590 10592 10590 10592 10597 10598 10601 10619 10634 10636 10663 10685 10683 10678 10671 10671 10669 10670 10670 10670 10671 10673 10675 10674 10674 10674 10673 10673 10674 10674 10674 10672 10670 10670 10668 10667 10665 10662 10659 10656 10652
10541 10554 10557 10568 10567 10568 10579 10581 10583 10585 10595 10607 10625 10655 10661 10663 10663 10650 10654 10653 10652 10652 10652 10652 10653 10652 10652 10654 10654 10655 10655 10655 10655 10653 10651 10648 10647 10645 10643 10641 10640 10636 10633 10629
10522 10531 10537 10541 10546 10554 10563 10562 10564 10570 10574 10585 10613 10624 10643 10641 10639 10639 10635 10632 10633 10634 10633 10632 10630 10630 10631 10632 10632 10633 10635 10634 10633 10631 10630 10627 10625 10624 10621 10617 10614 10612 10609 10604
10495 10506 10516 10520 10537 10537 10536 10538 10540 10537 10548 10564 10588 10607 10620 10621 10619 10619 10616 10612 10610 10614 10614 10612 10609 10606 10608 10609 10610 10611 10612 10610 10608 10608 10607 10606 10604 10600 10597 10594 10591 10588 10584 10578
10474 10480 10491 10505 10509 10513 10517 10524 10519 10527 10542 10538 10546 10591 10602 10599 10594 10593 10595 10594 10594 10590 10589 10588 10587 10588 10589 10590 10589 10588 10589 10588 10587 10585 10585 10583 10581 10577 10573 10570 10565 10561 10556 10550
10454 10459 10473 10488 10495 10502 10507 10507 10505 10504 10501 10508 10518 10586 10575 10572 10574 10573 10573 10569 10570 10571 10566 10563 10565 10567 10566 10566 10569 10568 10568 10565 10563 10563 10561 10559 10555 10551 10547 10543 10538 10534 10529 10523
10423 10441 10464 10480 10477 10470 10479 10480 10478 10475 10472 10507 10502 10552 10557 10548 10545 10550 10549 10548 10548 10541 10538 10539 10544 10543 10542 10543 10545 10544 10540 10538 10537 10537 10536 10533 10530 10525 10521 10516 10511 10505 10500 10494
10407 10428 10438 10454 10448 10448 10457 10453 10449 10451 10472 10465 10495 10498 10542 10523 10524 10519 10519 10521 10519 10509 10513 10518 10517 10518 10520 10523 10520 10514 10514 10515 10513 10513 10509 10505 10501 10498 10493 10487 10482 10476 10470 10464
10396 10412 10411 10428 10422 10421 10424 10426 10434 10440 10446 10439 10463 10469 10511 10494 10493 10498 10497 10485 10477 10481 10490 10489 10493 10494 10494 10494 10493 10490 10486 10484 10486 10485 10480 10479 10475 10470 10464 10458 10452 10445 10439 10434
10377 10388 10386 10401 10397 10391 10382 10418 10417 10413 10421 10429 10419 10447 10454 10467 10469 10477 10467 10450 10457 10462 10451 10450 10459 10466 10468 10465 10459 10459 10451 10449 10454 10456 10455 10449 10443 10438 10433 10427 10422 10415 10410 10403
10351 10358 10361 10375 10375 10354 10378 10389 10391 10395 10400 10396 10386 10401 10433 10437 10432 10437 10426 10429 10437 10425 10422 10424 10434 10435 10437 10433 10432 10427 10422 10416 10423 10424 10421 10416 10410 10405 10401 10397 10390 10384 10377 10369
10333 10341 10346 10346 10349 10344 10353 10372 10373 10361 10366 10365 10372 10388 10383 10383 10386 10403 10418 10402 10393 10394 10397 10401 10404 10402 10405 10405 10399 10394 10390 10388 10388 10386 10384 10382 10379 10376 10371 10365 10357 10351 10344 10335
10312 10312 10313 10315 10310 10311 10339 10353 10340 10329 10316 10370 10350 10337 10341 10343 10348 10382 10377 10368 10372 10366 10362 10369 10368 10367 10369 10370 10368 10362 10358 10357 10356 10351 10349 10346 10344 10344 10339 10332 10323 10318 10312 10303
10267 10271 10275 10286 10287 10298 10323 10323 10321 10294 10320 10324 10321 10310 10310 10307 10315 10330 10337 10340 10339 10337 10332 10330 10333 10332 10333 10331 10328 10326 10325 10322 10317 10314 10315 10315 10311 10307 10303 10299 10289 10284 10277 10269
10247 10250 10258 10261 10264 10278 10295 10292 10290 10285 10275 10283 10291 10283 10271 10271 10278 10288 10297 10302 10302 10305 10302 10297 10295 10296 10293 10292 10290 10289 10287 10287 10281 10280 10283 10280 10277 10273 10268 10263 10256 10250 10239 10233
10230 10230 10232 10239 10255 10257 10264 10263 10264 10255 10250 10246 10250 10254 10246 10244 10247 10248 10251 10256 10264 10265 10265 10262 10256 10254 10252 10248 10248 10247 10250 10243 10244 10246 10246 10246 10242 10238 10232 10224 10217 10212 10202 10195
10212 10214 10220 10220 10239 10219 10234 10234 10232 10223 10221 10221 10216 10214 10220 10218 10214 10210 10207 10206 10210 10214 10215 10218 10218 10214 10213 10207 10204 10202 10203 10201 10203 10206 10205 10205 10200 10196 10191 10186 10178 10170 10167 10161
10197 10195 10187 10200 10206 10206 10213 10204 10201 10196 10191 10186 10180 10174 10172 10172 10172 10165 10164 10163 10164 10165 10166 10166 10168 10169 10168 10166 10165 10163 10163 10163 10165 10166 10167 10165 10161 10154 10152 10145 10141 10137 10133 10128
10173 10173 10179 10187 10176 10185 10181 10167 10164 10162 10160 10155 10149 10142 10136 10137 10137 10132 10130 10126 10123 10125 10126 10124 10123 10126 10127 10128 10128 10129 10128 10127 10127 10126 10126 10124 10122 10119 10115 10111 10107 10104 10099 10094